Regional Weather Roundup
Issued by NWS Raleigh/Durham, NC

Home | Current Version | Previous Version | Text Only | Print | Product List | Glossary On
Versions: 1 2 3 4 5 6 7 8 9 10 11 12 13 14 15 16 17 18 19 20 21 22 23 24 25 26 27 28
000
ASUS42 KRAH 161910
RWRRAH
NORTH CAROLINA WEATHER ROUNDUP
NATIONAL WEATHER SERVICE RALEIGH NC
300 PM EDT WED APR 16 2014

NOTE: "FAIR" INDICATES FEW OR NO CLOUDS BELOW 12,000 FEET WITH NO
SIGNIFICANT WEATHER AND/OR OBSTRUCTIONS TO VISIBILITY.

NCZ001-053-055-056-065-067-162000-
WESTERN NORTH CAROLINA

CITY           SKY/WX    TMP DP  RH WIND       PRES   REMARKS
ASHEVILLE      SUNNY     54  11  18 SE8G18    30.28S
JEFFERSON      SUNNY     47  12  24 SE6       30.27F
MORGANTON      SUNNY     56  12  17 SE8       30.36F
HICKORY        SUNNY     52  19  27 VRB5      30.32F
RUTHERFORDTON  SUNNY     57  23  27 E7        30.31F
MOUNT AIRY     SUNNY     53  15  22 E10G16    30.32F
BOONE          SUNNY     47  15  27 E6        30.29S
$$

NCZ021-022-025-041-071-084-088-162000-
CENTRAL NORTH CAROLINA

CITY           SKY/WX    TMP DP  RH WIND       PRES   REMARKS
CHARLOTTE      SUNNY     53  24  32 VRB5      30.34F
GREENSBORO     SUNNY     50  23  34 E9G16     30.35F
WINSTON-SALEM  SUNNY     51  21  30 NE10      30.36F
RALEIGH-DURHAM SUNNY     52  25  35 E9        30.37S
FORT BRAGG     SUNNY     53  24  31 NE13      30.35F
FAYETTEVILLE   SUNNY     55  24  30 NE12G20   30.35S
CHAPEL HILL    SUNNY     52  23  32 VRB6      30.37S
BURLINGTON     SUNNY     52  21  29 N8G16     30.36F
LAURINBURG     SUNNY     54  26  34 E14       30.35F
$$

NCZ011-015-027-028-043-044-047-080-103-162000-
NORTHEASTERN NORTH CAROLINA

CITY           SKY/WX    TMP DP  RH WIND       PRES   REMARKS
GREENVILLE     SUNNY     52  27  37 NE14G23   30.37F
WASHINGTON     SUNNY     53  22  29 NE12      30.37S
ELIZABETH CITY SUNNY     49  31  49 N16G28    30.39S
MANTEO         SUNNY     45  28  51 NE22      30.39S
CAPE HATTERAS  PTSUNNY   45  32  60 NE16G30   30.36R
$$

NCZ078-087-090-091-093-098-101-162000-
SOUTHEASTERN NORTH CAROLINA

CITY           SKY/WX    TMP DP  RH WIND       PRES   REMARKS
LUMBERTON      SUNNY     55  29  36 NE13G20   30.34S
GOLDSBORO      SUNNY     52  25  35 N13       30.34F
KINSTON        SUNNY     52  27  37 N8G21     30.36F
KENANSVILLE    SUNNY     51  25  35 E8        30.36F
NEW BERN       SUNNY     53  28  38 NE14G21   30.36F
CHERRY POINT   MOSUNNY   53  29  39 NE20      30.35S
BEAUFORT       MOSUNNY   53  33  46 NE17G30   30.33F
JACKSONVILLE   SUNNY     54  28  36 N18G25    30.33F
WILMINGTON     SUNNY     57  27  31 N17       30.33S
$$




USA.gov is the U.S. government's official web portal to all federal, state and local government web resources and services.